TimeEST,TemperatureF,Dew PointF,Humidity,Sea Level PressureIn,VisibilityMPH,Wind Direction,Wind SpeedMPH,Gust SpeedMPH,PrecipitationIn,Events,Conditions,WindDirDegrees,DateUTC
12:53 AM,39.9,27.0,60,30.43,10.0,East,6.9,-,N/A,,Clear,90,2012-11-19 05:53:00
1:53 AM,37.9,27.0,65,30.42,10.0,Calm,Calm,-,N/A,,Clear,0,2012-11-19 06:53:00
2:53 AM,33.1,26.1,75,30.42,10.0,East,5.8,-,N/A,,Clear,90,2012-11-19 07:53:00
3:53 AM,36.0,27.0,70,30.40,10.0,East,5.8,-,N/A,,Clear,80,2012-11-19 08:53:00
4:53 AM,35.1,27.0,72,30.41,10.0,Calm,Calm,-,N/A,,Clear,0,2012-11-19 09:53:00
5:53 AM,33.1,26.1,75,30.42,10.0,Calm,Calm,-,N/A,,Clear,0,2012-11-19 10:53:00
6:53 AM,33.1,27.0,78,30.42,10.0,Calm,Calm,-,N/A,,Clear,0,2012-11-19 11:53:00
7:53 AM,30.9,27.0,85,30.42,8.0,East,6.9,-,N/A,,Clear,100,2012-11-19 12:53:00
8:53 AM,39.9,30.9,70,30.42,10.0,Calm,Calm,-,N/A,,Clear,0,2012-11-19 13:53:00
9:53 AM,43.0,32.0,65,30.40,10.0,Calm,Calm,-,N/A,,Clear,0,2012-11-19 14:53:00
10:53 AM,46.0,33.1,61,30.39,10.0,Calm,Calm,-,N/A,,Clear,0,2012-11-19 15:53:00
11:53 AM,48.9,32.0,52,30.36,10.0,West,4.6,-,N/A,,Clear,260,2012-11-19 16:53:00
12:53 PM,50.0,30.9,48,30.33,10.0,Calm,Calm,-,N/A,,Clear,0,2012-11-19 17:53:00
1:53 PM,52.0,32.0,47,30.32,10.0,NW,5.8,-,N/A,,Clear,310,2012-11-19 18:53:00
2:53 PM,52.0,30.9,45,30.30,10.0,Calm,Calm,-,N/A,,Clear,0,2012-11-19 19:53:00
3:53 PM,51.1,32.0,48,30.30,10.0,NNW,3.5,-,N/A,,Clear,340,2012-11-19 20:53:00
4:53 PM,50.0,30.9,48,30.29,10.0,North,4.6,-,N/A,,Clear,10,2012-11-19 21:53:00
5:53 PM,48.9,30.9,50,30.28,10.0,Calm,Calm,-,N/A,,Clear,0,2012-11-19 22:53:00
6:53 PM,48.0,30.0,50,30.28,10.0,NE,4.6,-,N/A,,Clear,40,2012-11-19 23:53:00
7:53 PM,45.0,30.9,58,30.28,10.0,NE,4.6,-,N/A,,Clear,50,2012-11-20 00:53:00
8:53 PM,44.1,30.9,60,30.27,10.0,Calm,Calm,-,N/A,,Clear,0,2012-11-20 01:53:00
9:53 PM,41.0,30.9,67,30.25,10.0,Calm,Calm,-,N/A,,Clear,0,2012-11-20 02:53:00
10:53 PM,42.1,30.9,65,30.23,10.0,Calm,Calm,-,N/A,,Clear,0,2012-11-20 03:53:00
11:53 PM,41.0,30.9,67,30.21,10.0,Calm,Calm,-,N/A,,Clear,0,2012-11-20 04:53:00